www.pogodaiklimat.ru

Погода и климат >> Архив погоды >> Ирак >> Salahadin


ПОГОДА в Salahadin

  • Прогноз погоды в Salahadin
  • Монитор погоды в Salahadin
  • Климат города

АРХИВ ПОГОДЫ в Salahadin

Время (UTC), дата Ветер
(напр.,м/с)
 
Видим.   Явления Облачность Т
(С)
Тd
(С)
f
(%)
Тe
(С)
Тes
(С)
Комфортность P
(гПа)
Po
(гПа)
Тmin
(С)
Tmax
(С)
R
(мм)
R24
(мм)
S
(см)
06 20.05 ЮЗ 2 10 км 8/0
[Cs]
+26.7 +11.7 39 +28 +38 жарко 1012.9 1013.0 +19.4
09 20.05 Ю 2 10 км 3/1 750 м
[Cu hum Ci sp]
+28.1 +11.1 35 +29 +47 жарко 1013.1 1013.0
12 20.05 СЗ 2 10 км 5/1
[Cu hum Ci sp]
+29.9 +11.3 32 +30 +41 жарко 1010.9 1011.0
15 20.05 С 2 10 км 9/1
[Cu hum Cs]
+27.2 +12.1 39 +28 +29 жарко 1011.4 1011.0
18 20.05 В 1 10 км 9/1
[Cu hum Cs]
+24.0 +11.4 45 +25 +25 комфорт 1013.7 1014.0 +31.8
03 21.05 СВ 3 10 км 8/1
[Cu hum Ac lent Cs]
+21.6 +10.3 49 +23 +24 комфорт 1014.2 1014.0
06 21.05 ЮЗ 2 10 км 6/1
[Cu hum Cs]
+25.6 +12.4 44 +27 +37 жарко 1014.0 1014.0 +21.3
09 21.05 ЮВ 2 10 км 8/3
[Cu hum Cs]
+28.2 +11.7 36 +29 +42 жарко 1012.9 1013.0
12 21.05 ЮЗ 4 10 км 9/9 720 м
[Cu Sc]
+26.2 +11.2 39 +27 +28 жарко 1013.1 1013.0
18 21.05 Ю 3 10 км 3/3 750 м
[Cu hum]
+23.9 +10.3 42 +25 +25 комфорт 1012.3 1012.0 +30.8
03 22.05 С 3 10 км 9/9 660 м
[Cu Sc]
+21.2 +9.7 48 +23 +23 комфорт 1013.7 1014.0
06 22.05 СВ 5 10 км в посл. час дождь 9/9 750 м
[Cu Sc]
+21.0 +10.5 51 +23 +24 комфорт 1016.3 1016.0 +19.2 0.4
09 22.05 В 4 10 км 8/6 750 м
[Cu Sc Ac cuf]
+26.0 +14.0 48 +28 +32 жарко 1013.9 1014.0
12 22.05 ЮВ 5 10 км 8/8 750 м
[Cu Sc]
+26.8 +11.9 40 +28 +29 жарко 1012.7 1013.0
15 22.05 В 2 10 км 3/3 750 м
[Cu hum]
+26.4 +12.7 43 +28 +29 жарко 1012.0 1012.0
18 22.05 В 4 10 км 6/6 750 м
[Cu Sc]
+24.4 +11.8 45 +26 +26 жарко 1012.7 1013.0 +29.2
03 23.05 В 3 10 км 3/3 750 м
[Cu hum]
+19.6 +10.7 56 +21 +22 комфорт 1014.4 1014.0
06 23.05 ЮВ 3 10 км ясно +25.2 +11.4 42 +27 +37 жарко 1013.2 1013.0 +18.6 4
09 23.05 ЮВ 4 10 км 3/1 750 м
[Cu hum Ac und Ci fib]
+28.0 +12.5 38 +29 +40 жарко 1012.3 1012.0
12 23.05 ЮЗ 5 10 км 8/8 750 м
[Cu Sc]
+29.7 +12.3 34 +31 +32 жарко 1009.9 1010.0
18 23.05 СВ 6 10 км 8/6 750 м
[Cu Sc Ac cuf]
+22.6 +10.2 45 +24 +24 комфорт 1013.3 1013.0 +31.0
03 24.05 ЮВ 6 10 км 6/6 750 м
[Cu Sc]
+21.6 +9.1 45 +23 +23 комфорт 1011.5 1012.0
06 24.05 ЮВ 3 10 км 1/1 750 м
[Cu hum]
+25.5 +13.4 47 +28 +37 жарко 1009.9 1010.0 +21.0
09 24.05 ЮВ 4 10 км 4/1 750 м
[Cu hum Ac trans Ci fib]
+27.1 +13.2 42 +29 +39 жарко 1009.3 1009.0
12 24.05 10 км гроза, ливневой дождь н/о +27.4 +13.7 43 +29 +32 жарко 1008.1 1008.0
15 24.05 ЮВ 3 10 км в посл. час ливневой дождь {гроза} 8/8 750 м
[Cu Sc]
+26.2 +12.5 43 +28 +28 жарко 1007.5 1008.0
18 24.05 Ю 2 10 км 3/3 750 м
[Cu Sc]
+23.4 +10.3 44 +25 +25 комфорт 1009.5 1010.0 +30.2 0.1
03 25.05 ЮВ 3 10 км 1/1 750 м
[Cu med, cong]
+21.6 +10.5 49 +23 +24 комфорт 1008.4 1008.0
06 25.05 Ю 3 10 км 4/4 750 м
[Cu Sc]
+25.8 +13.5 47 +28 +34 жарко 1007.6 1008.0 +20.6
09 25.05 Ю 2 10 км 1/0
[Ac trans]
+28.0 +13.9 42 +30 +50 жарко 1006.7 1007.0
12 25.05 ЮВ 2 10 км 5/5 750 м
[Cu Sc]
+28.4 +14.5 43 +31 +37 душно 1005.7 1006.0
15 25.05 З 2 10 км 4/4 750 м
[Cu Sc]
+27.6 +12.8 40 +29 +30 жарко 1005.3 1005.0
03 26.05 СЗ 1 10 км ясно +21.9 +10.0 47 +24 +25 комфорт 1010.8 1011.0
06 26.05 ЮЗ 2 10 км 1/1 750 м
[Cu hum]
+24.8 +11.3 43 +26 +37 жарко 1011.5 1012.0 +19.4
09 26.05 ЮВ 2 10 км 1/1 750 м
[Cu hum]
+28.3 +13.3 40 +30 +49 жарко 1011.1 1011.0
12 26.05 СЗ 2 10 км 9/9 750 м
[Cu Sc]
+29.3 +11.7 34 +30 +31 жарко 1010.1 1010.0
15 26.05 СЗ 3 10 км 3/3 750 м
[Cu hum]
+28.7 +10.8 33 +29 +30 жарко 1009.7 1010.0
18 26.05 СВ 1 10 км 3/3 750 м
[Cu hum]
+24.6 +11.0 42 +26 +26 жарко 1012.5 1013.0 +31.3 0.0

 

Местоположение метеостанции Salahadin (Ирак): широта 36.38 долгота 44.20 высота над уровнем моря 1075 м.

В архиве по умолчанию представлена погода в Salahadin за последнюю неделю. Архивные данные за месяц целиком и за предыдущие месяцы, начиная с января 2011 года, Вы можете получить, выбрав интересующий диапазон дат из раскрывающегося списка и нажав кнопку "Ввод!".


*Определитесь, кто Вы:
робот инопланетянин человек

Внимание! Время в таблицах - всемирное. Для получения местного времени необходимо прибавить поправку, которая в Salahadin равна 3 ч.

Смотрите также архив погоды в соседних городах и на ближайших метеорологических станциях:

Погода в Erbeel (Ирак) (31 км)
Погода в Aqraa (Ирак) (50 км)
Погода в Makhmoor (Ирак) (88 км)
Погода в Mosul (Ирак) (94 км)
Погода в Kirkuk (Ирак) (103 км)
Погода в Chamchamal (Ирак) (111 км)
Погода в Dohuk (Ирак) (120 км)
Погода в Hakkari (Турция) (138 км)
Погода в Mahabad (Иран) (143 км)
Погода в Sulaimaniya (Ирак) (146 км)

Пояснения к столбцам:

Ветер - указаны скорость ветра в м/с - средняя за 10 мин, порывы в срок и между сроками (в фигурных скобках) и направление, откуда дует ветер: С - северный, СВ - северо-восточный, В - восточный, ЮВ - юго-восточный, Ю - южный, ЮЗ - юго-западный, З - западный, СЗ - северо-западный.
Видимость - горизонтальная дальность видимости в метрах или километрах. При видимости от 1 до 10 км при отсутствии осадков обычно наблюдается дымка, при ухудшении видимости до 1 км и менее - туман. В сухую погоду видимость может ухудшаться дымом, пылью или мглою.
Явления - указаны атмосферные явления, наблюдавшиеся в срок или в последний час перед сроком; фигурными скобками обозначены явления, наблюдавшиеся между сроками (за 1-3 часа до срока); квадратными скобками обозначены град или гололедные отложения с указанием их диаметра в мм.
Облачность - указаны через наклонную черту общая и нижняя облачность в баллах и высота нижней границы облаков в метрах; квадратными скобками обозначены формы облаков: Ci - перистые, Cs - перисто-слоистые, Cc - перисто-кучевые, Ac - высококучевые, As - высокослоистые, Sc - слоисто-кучевые, Ns - слоисто-дождевые, Cu - кучевые, Cb - кучево-дождевые. Подробнее классификацию облаков см. в Атласе облаков (PDF).
T - Температура воздуха - температура, измеренная на высоте 2 м над землей.
Td - Температура точки росы - температура, при понижении до которой содержащийся в воздухе водяной пар достигнет насыщения.
f - Относительная влажность воздуха - влажноcть воздуха, измеренная на высоте 2 м над землей.
Te - Эффективная температура - температура, которую ощущает одетый по сезону человек в тени. Характеристика душности погоды. При расчете учитывается влияние влажности воздуха и скорости ветра на теплоощущения человека.
Tes - Эффективная температура на солнце - температура, которую ощущает человек, с поправкой на солнечный нагрев. Характеристика знойности погоды. Зависит от высоты солнца над горизонтом, облачности и скорости ветра. Ночью, в пасмурную погоду, а также при ветре 12 м/с и более поправка равна нулю.
P - Атмосферное давление - приведенное к уровню моря атмосферное давление.
Po - Атмосферное давление - измеренное на уровне метеостанции атмосферное давление.
Tmin - Минимальная температура - минимум температуры воздуха на высоте 2 м над землей.
Tmax - Максимальная температура - максимум температуры воздуха на высоте 2 м над землей.
R - Количество осадков - Количество выпавших осадков за период времени, мм. При наведении курсора мыши на число - период времени, за который выпало указанное количество осадков.
R24 - Количество осадков - Количество выпавших осадков за 24 часа, мм.
S - Снежный покров - Высота снежного покрова, см. При наведении курсора мыши на число - состояние снежного покрова и степень покрытия местности в баллах.